Kuchera_Ratio
0.0 0.0 0.0 0.0 0.0 0.0 0.0 0.0 0.0 0.0 0.0 0.0 0.0 0.0 0.0 0.0 0.0 0.0 0.0 0.0 0.0 0.0 0.0 0.0 0.0 0.0 0.0 0.0 0.0 0.0 0.0 0.0 0.0 0.0 0.0 0.0 0.0 0.0 0.0 0.0 0.0 0.0 0.0 0.0 0.0 0.0 0.0 0.0 0.0 0.0 0.0 0.0 0.0 0.0 0.0 0.0 0.0 0.0 0.0 0.0 0.0 0.0 0.3 0.3 0.0 0.0 0.0 0.0 0.0 0.0 0.0 0.0 0.0 0.0 0.0 0.0 0.0 0.0 0.0 0.0 0.0 0.0 1.0 1.4 1.8 13.7 2.7
0.0 0.0 0.0 0.0 0.0 0.0 0.0 0.0 0.0 0.0 0.0 0.0 0.0 0.0 0.0 0.0 0.0 0.0 0.0 0.0 0.0 0.0 4.5 3.0 5.2 1.2 0.0 0.0 0.0 0.0 0.0 0.0 0.0 0.0 0.0 0.0 0.0 0.0 0.0 0.0 0.0 0.0 0.0 0.0 0.0 0.0 0.8 0.0 0.0 0.0 0.0 0.0 0.0 0.0 0.0 0.0 0.0 0.0 0.0 0.0 0.0 0.4 0.8 1.1 1.0 1.0 0.6 0.0 0.0 0.0 0.0 0.0 0.3 0.0 0.0 0.0 0.0 0.0 0.0 0.0 0.0 0.0 1.1 1.2 2.4 15.6 3.6
0.0 0.0 0.0 0.0 0.0 0.0 0.0 0.0 0.0 0.0 0.0 0.0 0.0 0.0 0.0 0.0 0.0 0.0 0.0 0.0 0.0 0.0 0.0 3.0 8.9 0.7 0.0 0.0 0.0 0.0 0.0 0.0 0.0 0.0 0.0 0.0 0.0 0.0 0.0 0.0 0.0 0.0 0.0 0.0 0.0 0.0 0.0 0.0 0.0 0.0 0.0 0.0 0.0 0.0 0.0 0.0 0.0 0.0 0.0 0.0 0.0 0.8 1.1 1.4 1.6 17.2 16.5 16.1 16.7 2.5 2.1 1.6 1.1 0.0 0.0 0.0 0.0 0.0 1.3 1.0 0.3 0.4 0.9 1.1 2.3 3.7 4.1
0.0 0.0 0.0 0.0 0.0 0.0 0.0 0.0 0.0 0.0 0.0 0.0 0.0 0.0 0.0 0.0 7.4 0.0 0.0 0.0 0.0 0.0 0.0 0.0 0.0 1.5 0.4 3.5 1.0 0.0 0.0 0.0 0.0 0.0 0.0 0.0 0.0 0.0 0.0 0.0 0.0 0.0 0.0 0.0 0.0 0.0 0.0 0.0 0.0 0.0 0.0 0.0 0.0 0.0 0.0 0.0 0.0 0.0 0.0 0.0 0.0 1.2 1.7 2.1 2.0 2.4 2.9 2.6 2.8 0.0 0.0 0.7 3.0 0.0 0.0 0.0 0.0 2.0 2.3 2.1 1.6 1.4 1.4 1.6 1.9 2.6 3.8
0.0 0.0 0.0 0.0 0.0 0.0 0.0 0.0 0.0 0.0 0.0 0.0 0.0 0.0 0.0 0.0 4.4 6.3 7.7 0.0 0.0 0.0 0.0 0.0 0.0 0.7 0.0 3.3 0.0 0.0 0.0 0.0 0.0 0.0 0.0 0.0 0.0 0.0 0.0 0.0 0.0 0.0 0.0 0.0 0.0 0.0 0.0 0.0 0.0 0.0 0.0 0.0 0.0 0.0 0.0 0.0 0.0 0.0 0.0 0.0 0.0 1.9 2.4 0.6 3.1 3.3 3.6 2.2 0.0 0.0 0.0 0.0 0.0 0.0 0.6 1.2 3.4 2.2 2.7 2.6 2.9 2.9 2.6 2.9 3.0 3.0 4.0
0.0 0.0 0.0 0.0 0.0 0.0 0.0 0.0 0.0 0.0 0.0 0.0 0.0 0.0 0.0 4.8 0.0 0.0 0.0 3.3 6.5 3.2 0.0 0.0 0.0 0.0 0.0 0.0 0.0 0.0 0.0 0.0 0.0 0.0 0.0 0.0 0.0 0.0 0.0 0.0 0.0 0.0 0.0 0.0 4.3 2.8 1.4 0.0 4.3 0.0 0.0 0.0 0.0 0.0 0.0 0.0 0.0 0.0 0.0 0.0 0.0 3.0 3.4 0.0 0.0 1.0 0.0 0.0 0.0 0.0 0.0 0.0 0.0 0.0 2.5 2.4 3.8 2.5 3.8 3.9 1.0 3.8 3.6 3.8 4.0 4.3 4.2
0.0 0.0 0.0 0.0 0.0 0.0 0.0 0.0 0.0 0.0 0.0 0.0 0.0 0.0 0.0 0.0 0.0 0.0 0.0 4.8 0.0 0.0 0.0 0.0 0.0 0.0 0.0 0.0 0.0 0.0 0.0 0.0 0.0 0.0 0.0 0.0 0.0 0.0 8.0 0.0 0.0 0.0 0.0 0.0 5.1 3.9 4.8 5.4 2.7 0.7 0.0 0.0 0.5 1.2 0.0 0.0 0.0 0.0 0.0 0.0 0.0 1.8 4.6 0.0 0.0 2.3 0.0 0.0 0.0 0.0 0.0 0.0 0.0 1.9 1.4 1.5 3.8 4.2 4.8 1.8 1.3 1.8 4.5 4.8 5.1 4.5 3.1
0.0 0.0 0.0 0.0 0.0 0.0 0.0 0.0 0.0 0.0 0.0 0.0 0.0 0.0 1.6 1.3 1.4 6.3 0.0 0.0 0.0 0.0 0.0 0.0 0.0 0.0 0.0 3.3 0.0 0.0 0.0 0.0 0.0 0.0 0.0 6.8 0.0 0.0 0.0 0.0 0.0 0.0 0.0 0.0 5.7 3.6 2.3 2.2 7.3 0.0 0.0 0.7 0.0 0.0 0.0 0.0 0.0 0.0 0.0 0.0 0.0 1.2 4.7 0.0 5.5 6.0 4.9 0.0 0.0 0.0 0.0 2.8 6.3 3.9 4.5 3.9 3.5 5.1 4.3 5.8 5.7 5.7 5.9 5.8 5.9 5.7 4.4
0.0 0.0 0.0 0.0 0.0 0.0 0.0 0.0 0.0 0.0 0.0 0.0 0.0 0.0 0.0 0.0 0.0 0.0 0.8 4.7 0.0 0.0 0.0 0.0 0.0 0.7 0.0 0.0 0.0 0.0 0.0 0.0 0.0 0.0 0.0 0.0 0.0 0.0 0.8 0.0 0.0 0.0 0.0 0.0 0.1 0.0 0.0 0.0 0.0 0.0 0.0 3.3 0.0 0.0 0.0 0.0 0.0 0.0 0.0 0.0 0.0 5.2 4.9 2.4 7.0 6.9 7.4 3.7 2.2 3.2 4.0 5.1 7.3 7.5 6.3 4.3 6.0 7.0 4.9 6.6 4.7 6.9 7.3 7.2 6.6 6.7 7.7
0.0 0.0 0.0 0.0 0.0 0.0 0.0 0.0 0.0 0.0 0.0 0.0 0.0 0.0 0.0 0.0 0.0 0.0 0.0 8.1 0.0 3.9 0.0 0.0 0.0 5.3 0.0 0.0 0.0 0.0 0.0 0.0 0.0 6.3 0.0 0.0 0.0 0.0 0.0 0.0 0.0 1.5 0.0 0.9 0.0 0.0 0.0 0.0 0.0 0.0 0.0 0.0 0.0 0.0 0.0 0.0 0.0 0.0 0.0 0.5 1.5 7.8 7.6 7.5 7.6 7.8 8.2 6.3 3.6 4.5 8.1 8.3 8.8 8.4 7.9 5.3 5.3 3.8 5.0 3.7 3.2 3.8 8.2 8.9 8.2 7.9 5.3
0.0 0.0 0.0 0.0 0.0 0.0 0.0 0.0 0.0 0.0 0.0 0.0 0.0 0.0 0.0 0.0 0.0 0.0 0.0 10.1 5.5 0.0 4.2 1.1 0.7 0.0 0.0 0.0 0.0 0.0 0.0 0.0 0.0 3.1 2.2 0.0 0.0 0.0 0.0 0.0 1.4 5.9 2.2 0.0 0.0 0.0 0.0 0.0 0.0 0.0 0.0 0.0 0.0 0.0 0.0 0.0 0.0 0.0 0.0 2.0 4.2 3.7 8.9 8.5 8.5 8.7 9.3 6.7 8.4 9.0 9.9 18.3 10.9 10.4 3.1 2.8 3.8 6.0 7.9 9.4 7.8 4.0 5.4 7.9 6.3 3.5 1.0
0.0 0.0 0.0 0.0 0.0 0.0 0.0 0.0 0.0 0.0 0.0 0.0 0.0 0.0 0.0 0.0 0.0 0.0 0.0 8.6 9.7 0.6 4.2 7.7 2.8 0.0 0.0 0.0 0.0 0.0 0.0 0.0 0.0 0.0 0.0 0.0 0.0 0.0 0.0 0.0 0.0 9.8 0.0 0.0 0.0 0.0 0.0 0.0 0.0 0.0 0.0 0.0 0.0 0.0 0.0 0.0 0.0 0.0 0.0 0.0 5.8 5.4 7.6 9.6 9.4 9.6 10.3 10.4 10.0 10.9 19.3 12.0 9.3 5.2 0.2 0.0 0.0 0.8 5.2 5.1 4.3 3.8 3.0 2.6 2.8 2.4 2.4
0.0 0.0 0.0 0.0 0.0 0.0 0.0 0.0 0.0 0.0 0.0 0.0 0.0 0.0 0.0 0.0 0.0 0.3 0.9 0.4 8.7 6.5 10.2 5.9 0.0 0.0 0.0 0.0 0.0 0.0 0.0 0.0 0.0 0.0 0.0 0.0 0.0 0.0 0.0 0.0 0.0 0.0 0.0 0.0 0.0 0.0 0.0 1.8 2.5 1.5 0.0 0.0 0.0 0.0 0.0 0.0 0.0 0.0 0.0 0.0 2.2 10.1 8.1 10.2 7.5 10.3 11.0 11.3 11.3 20.8 21.2 11.3 5.8 5.1 1.0 0.0 1.6 5.4 4.3 6.5 4.0 3.7 4.1 4.2 5.2 3.7 2.6
0.0 0.0 0.0 0.0 0.0 0.0 0.0 0.0 0.0 0.0 0.0 0.0 0.0 0.0 0.0 0.0 0.0 0.5 0.9 0.6 8.8 1.7 1.1 0.2 0.0 0.0 0.0 0.0 0.0 0.0 0.0 0.0 0.0 0.0 0.0 0.0 0.0 0.0 0.0 0.0 0.0 0.0 0.0 0.0 0.0 0.0 9.5 10.7 11.6 12.1 10.5 6.9 11.5 6.2 0.0 0.0 0.0 0.0 0.0 0.0 0.0 1.2 8.6 9.7 10.5 10.8 11.3 11.4 11.6 12.1 12.5 9.3 10.2 12.7 7.7 6.2 9.5 7.8 12.5 13.0 12.0 4.2 4.7 4.8 5.2 3.6 0.0
0.0 0.0 0.0 0.0 0.0 0.0 0.0 0.0 0.0 0.0 0.0 0.0 0.0 0.0 0.0 0.0 0.0 0.0 0.0 0.6 9.2 1.3 0.9 11.0 6.7 0.0 0.0 0.0 0.0 2.8 3.0 3.3 2.2 3.3 0.0 0.0 0.0 0.0 0.0 0.0 0.0 0.0 0.0 0.0 3.8 3.3 4.8 8.3 12.6 13.2 12.9 12.8 12.6 12.2 0.3 0.0 0.0 0.0 0.0 0.0 0.0 0.0 2.3 10.5 8.8 11.3 11.6 11.9 12.3 12.8 13.3 18.6 13.4 9.2 2.9 0.0 0.0 0.0 5.8 10.7 12.5 3.4 0.0 0.0 0.0 5.5 0.0
0.0 0.0 0.0 0.0 0.0 0.0 0.0 0.0 0.0 0.0 0.0 0.0 0.0 0.0 0.0 0.0 0.0 0.0 0.0 0.0 0.9 12.3 6.0 0.0 0.0 0.0 0.0 0.0 0.0 3.3 8.5 11.7 6.7 9.2 5.0 0.0 0.0 0.0 0.0 0.0 0.0 0.0 0.0 0.0 0.0 2.8 7.6 9.9 12.0 13.7 13.5 13.5 8.2 6.7 12.5 2.0 2.3 0.0 0.0 0.0 0.0 0.0 0.0 6.1 4.3 11.6 12.0 12.1 12.7 13.3 21.0 14.3 14.0 10.4 4.2 0.0 0.0 0.0 0.0 13.0 13.5 4.7 0.0 0.0 0.0 0.0 0.0
0.0 0.0 0.0 0.0 0.0 0.0 0.0 0.0 0.0 0.0 0.0 0.0 0.0 0.0 0.0 0.0 0.0 0.0 0.0 0.0 0.2 8.0 0.0 0.0 0.0 0.0 0.5 0.6 0.4 0.0 0.0 9.2 7.9 11.5 11.3 9.5 0.0 0.0 0.0 0.0 0.0 0.0 0.0 0.0 6.7 8.2 10.3 11.0 9.8 9.4 11.6 2.5 9.3 11.4 6.9 8.5 11.0 7.0 0.0 0.0 0.0 2.9 9.3 8.5 11.2 12.3 12.4 12.4 13.1 13.9 14.4 14.9 9.3 6.8 4.6 0.0 0.0 0.0 9.0 14.9 15.9 4.5 0.0 0.0 0.0 0.0 0.0
0.0 0.0 0.0 0.0 0.0 0.0 0.0 0.0 0.0 0.0 0.0 0.0 0.0 0.0 0.0 0.0 0.0 0.0 0.0 0.0 0.0 0.1 0.0 0.0 0.0 0.0 0.6 1.0 0.8 0.4 0.2 0.7 0.6 0.2 11.0 0.2 0.0 0.0 0.0 0.0 0.0 0.0 0.0 8.2 10.1 12.3 12.4 12.1 13.8 13.0 14.1 1.3 0.6 5.3 14.1 7.3 12.6 10.8 9.0 8.8 9.4 8.7 8.8 8.4 12.4 13.1 12.5 12.4 14.1 14.6 13.4 6.4 3.6 5.0 0.0 0.0 0.0 4.2 14.7 15.6 15.2 0.0 0.0 0.0 0.0 0.0 0.0
0.0 0.0 0.0 0.0 0.0 0.0 0.0 0.0 0.0 0.0 0.0 0.0 0.0 0.0 0.0 0.0 0.0 0.0 0.0 0.0 0.2 8.1 0.0 0.0 0.0 0.0 0.0 0.0 0.0 0.0 0.0 0.3 0.9 12.4 12.6 12.4 8.2 0.0 0.0 0.0 0.0 7.7 0.0 10.5 11.0 12.0 13.4 12.9 9.8 10.2 14.0 10.3 7.1 13.7 6.8 12.2 12.4 6.0 6.5 12.3 12.0 12.4 12.6 12.0 11.7 13.5 13.9 14.3 15.0 15.6 13.9 8.4 0.0 0.0 0.0 0.0 6.8 15.4 15.9 8.5 0.0 0.0 0.0 0.0 0.0 0.0 0.0
0.0 0.0 0.0 0.0 0.0 0.0 0.0 0.0 0.0 0.0 0.0 0.0 0.0 0.0 0.0 0.0 0.0 0.0 0.0 0.0 0.0 0.0 0.0 0.0 0.0 0.0 0.0 0.0 0.0 0.0 0.0 0.6 1.4 2.6 12.1 13.1 0.7 0.0 0.1 10.3 0.0 0.7 8.3 1.0 13.4 10.2 14.3 15.0 13.5 10.8 15.6 12.9 9.9 5.7 15.4 12.7 3.7 6.2 7.3 7.5 14.2 12.7 14.7 14.0 14.3 13.2 14.3 15.3 15.9 16.2 18.4 8.2 0.0 0.0 0.0 0.0 13.5 12.4 0.0 0.0 0.0 0.0 0.0 0.0 0.0 0.3 0.4
0.0 0.0 0.0 0.0 0.0 0.0 0.0 0.0 0.0 0.0 0.0 0.0 0.0 0.0 0.0 0.0 0.0 0.0 0.0 0.0 0.0 0.0 0.0 0.0 0.0 0.0 0.0 0.0 0.0 0.0 0.0 0.9 1.4 1.7 2.3 2.1 0.9 1.0 16.5 14.3 10.5 9.2 12.6 12.0 14.9 14.1 12.4 15.6 14.7 12.8 9.8 10.9 10.8 13.4 15.1 15.0 10.3 0.0 0.3 6.1 9.4 4.4 14.9 13.6 13.1 9.5 16.3 16.3 17.1 16.1 11.5 6.5 0.0 0.0 12.6 9.2 1.4 0.2 0.0 0.0 0.4 0.2 0.4 0.4 0.5 0.7 0.9
0.0 0.0 0.0 0.0 0.0 0.0 0.0 0.0 0.0 0.0 0.0 0.0 0.0 0.0 0.0 0.0 0.0 0.0 0.0 0.0 0.0 0.0 0.0 0.0 0.0 0.0 0.0 0.0 0.0 0.0 0.0 0.0 0.0 0.0 0.2 0.7 1.0 1.0 1.4 1.7 1.4 1.1 1.4 1.9 13.9 14.4 12.9 13.0 12.4 14.8 15.4 13.6 12.3 14.9 14.0 16.0 16.3 9.5 3.3 7.4 15.8 3.3 11.8 9.7 14.5 9.2 13.5 14.7 13.2 7.0 0.0 0.0 0.0 0.0 1.7 1.9 1.3 0.7 0.4 0.7 1.1 1.2 1.3 1.4 1.3 1.4 1.6
0.0 0.0 0.0 0.0 0.0 0.0 0.0 0.0 0.0 0.0 0.0 0.0 0.0 0.0 0.0 0.0 0.0 0.0 0.0 0.0 0.0 0.0 0.0 0.0 0.0 0.0 0.0 0.0 0.0 0.0 0.0 0.0 0.0 0.0 0.0 0.0 1.1 1.3 0.9 1.0 1.1 0.0 0.6 1.2 10.5 10.5 10.8 10.7 15.1 11.5 15.9 13.0 13.1 15.6 14.1 14.6 16.5 13.0 15.0 6.7 10.2 0.0 0.0 0.0 8.5 11.4 1.9 1.9 1.8 1.0 1.2 1.5 2.1 0.7 1.3 1.8 1.6 1.0 1.3 1.2 1.6 2.1 1.3 0.0 0.2 0.0 0.0
0.0 0.0 0.0 0.0 0.0 0.0 0.0 0.0 0.0 0.0 0.0 0.0 0.0 0.0 0.0 0.0 0.0 0.0 0.0 0.0 0.0 0.0 0.0 0.0 0.0 0.0 0.0 0.0 0.0 0.0 0.0 0.0 0.0 0.0 0.0 0.0 0.6 1.4 1.4 1.0 0.0 0.6 0.4 0.6 0.9 1.1 1.7 2.4 9.2 11.8 16.0 11.1 13.9 16.6 17.4 17.4 15.8 11.6 15.8 14.5 8.8 0.0 0.0 11.2 13.3 7.3 11.6 15.0 3.4 2.6 2.4 2.9 2.4 1.9 1.6 1.2 0.5 0.7 0.9 2.1 2.6 3.0 2.6 2.3 1.6 2.7 2.3
0.0 0.0 0.0 0.0 0.0 0.0 0.0 0.0 0.0 0.0 0.0 0.0 0.0 0.0 0.0 0.0 0.0 0.0 0.0 0.5 0.9 1.9 9.2 0.7 0.0 0.0 0.0 0.0 0.0 0.0 0.0 0.0 0.0 0.0 0.0 0.0 0.0 0.4 1.2 0.0 0.0 0.6 0.4 0.0 0.0 0.1 0.6 12.9 13.6 15.5 16.5 8.6 12.4 16.6 13.7 16.5 16.5 12.8 17.6 15.5 13.8 13.0 0.0 12.1 11.2 13.8 15.5 15.0 9.2 3.0 2.0 2.3 2.7 2.7 2.6 2.3 2.3 2.1 2.7 2.9 1.9 2.1 1.7 1.9 2.2 0.0 2.6
0.0 0.0 0.0 0.0 0.0 0.0 0.0 0.0 0.0 0.0 0.0 0.0 0.0 0.0 0.0 0.0 0.0 0.0 0.0 0.0 0.0 2.9 3.8 11.2 0.3 0.0 0.0 0.0 0.0 0.0 0.0 0.0 0.0 0.0 0.0 0.0 0.0 0.0 0.0 0.0 0.0 0.0 0.0 0.0 0.2 0.0 0.6 3.1 3.3 14.1 14.8 12.2 0.0 14.8 12.8 8.8 10.2 1.7 10.5 11.5 6.4 0.0 0.0 15.1 11.3 13.0 12.5 5.4 5.1 3.4 1.9 1.6 2.1 0.5 0.7 1.3 2.5 3.3 3.7 3.5 3.3 3.7 3.2 4.0 0.0 0.0 4.3
0.0 0.0 0.0 0.0 0.0 0.0 0.0 0.0 0.0 0.0 0.0 0.0 0.0 0.0 0.0 0.0 0.0 0.0 0.0 0.0 2.9 2.5 3.5 12.6 1.0 0.0 0.0 0.0 0.0 0.0 0.0 0.0 0.0 0.0 0.0 0.0 0.0 0.0 0.0 0.0 0.0 0.2 0.0 0.0 0.0 0.0 0.7 2.5 13.4 12.1 13.4 11.3 0.0 7.4 1.1 13.3 10.2 13.3 14.6 11.5 1.3 12.1 13.3 12.0 13.9 18.6 18.6 15.2 12.6 4.1 14.7 14.7 3.5 4.2 4.1 4.0 2.3 3.8 4.0 5.3 4.8 5.2 5.4 5.8 6.1 4.5 0.4
0.0 0.0 0.0 0.0 0.0 0.0 0.0 0.0 0.0 0.0 0.0 0.0 0.0 0.0 0.0 0.0 0.0 0.0 0.0 0.0 0.0 3.8 4.5 4.1 1.9 0.0 0.0 0.0 0.0 0.0 0.0 0.0 0.0 0.0 0.0 0.0 0.0 0.0 0.0 0.0 0.0 0.0 0.0 0.0 0.0 0.5 1.8 12.7 14.6 1.1 1.3 0.2 13.7 15.0 1.4 0.8 1.5 15.0 12.8 10.3 2.4 12.2 10.0 15.5 18.4 19.1 17.2 13.5 4.1 4.0 4.1 4.1 4.3 4.2 4.2 4.2 3.7 4.0 4.0 4.7 6.5 6.4 6.9 6.5 6.8 6.6 6.1
0.0 0.0 0.0 0.0 0.0 0.0 0.0 0.0 0.0 0.0 0.0 0.0 0.0 0.0 0.0 0.0 0.0 0.0 0.0 0.0 0.0 0.0 4.5 3.8 0.0 0.5 0.0 0.0 0.0 0.0 0.0 0.0 0.0 0.0 0.0 0.0 0.0 0.0 0.0 0.0 0.0 0.0 0.0 0.0 0.0 0.9 1.4 0.6 0.1 0.7 12.1 0.0 0.2 15.7 13.8 16.5 17.6 16.0 12.2 3.4 2.7 2.1 2.3 2.6 2.9 3.7 4.0 3.4 3.2 3.6 4.1 4.5 4.6 4.7 5.1 4.2 0.0 4.6 5.2 5.7 6.2 6.4 6.3 2.9 6.8 7.8 8.8
0.0 0.0 0.0 0.0 0.0 0.0 0.0 0.0 0.0 0.0 0.0 0.0 0.0 0.0 0.0 0.0 0.0 0.0 0.0 0.0 0.0 0.0 4.6 4.6 12.1 0.9 0.0 0.0 0.0 0.0 0.0 0.0 0.0 0.0 0.0 0.0 0.0 0.0 0.0 0.0 0.0 0.0 0.0 0.0 0.0 10.1 0.5 0.0 0.0 0.2 0.0 0.0 0.9 15.3 17.5 15.5 16.0 12.0 3.2 3.0 2.6 2.2 2.4 2.5 2.6 3.2 3.6 3.8 3.7 4.0 4.2 4.3 4.5 3.9 3.4 0.0 0.0 0.0 6.2 6.2 6.5 7.0 2.8 3.6 4.3 4.8 4.7
0.0 0.0 0.0 0.0 0.0 0.0 0.0 0.0 0.0 0.0 0.0 0.0 0.0 3.4 4.2 4.9 0.0 0.0 0.0 0.0 0.0 0.0 4.8 5.6 4.2 1.6 0.0 0.0 0.0 0.0 0.0 0.0 0.0 0.0 0.0 0.0 0.0 0.0 0.0 0.0 0.0 0.0 0.0 0.0 0.0 0.0 0.1 0.0 0.2 0.5 0.0 0.0 0.9 15.7 16.0 15.9 16.3 12.3 3.2 2.6 2.1 2.2 2.9 3.1 3.1 3.6 3.9 4.1 2.9 4.3 5.2 5.9 6.4 5.3 6.7 5.8 1.3 1.6 2.1 3.3 3.2 1.9 2.9 3.5 3.9 4.6 4.7
0.0 0.0 0.0 0.0 0.0 0.0 0.0 0.0 0.0 0.0 0.0 0.0 0.0 4.2 4.3 0.0 0.0 0.0 0.0 0.0 0.0 0.0 4.6 5.2 4.5 2.7 0.9 0.0 0.0 0.0 0.0 0.0 0.0 0.0 0.0 0.0 0.0 0.0 0.0 0.0 0.0 0.0 0.0 0.0 0.0 0.0 0.0 0.0 0.2 0.6 0.0 0.0 0.5 17.5 13.8 15.1 18.5 15.4 3.3 2.4 2.3 2.6 3.1 3.3 3.6 4.1 4.4 4.7 5.4 6.2 6.8 7.1 7.3 7.7 8.2 6.5 2.8 3.2 3.7 4.4 3.6 2.5 2.9 3.5 3.4 3.9 4.6
0.0 0.0 0.0 0.0 0.0 0.0 0.0 0.0 0.0 0.0 0.0 0.0 0.0 0.0 0.0 0.0 0.0 0.0 0.0 0.0 0.0 0.0 0.0 5.2 13.2 3.9 10.0 0.0 0.0 0.0 0.0 0.0 0.0 0.0 0.0 0.0 0.0 0.0 0.0 0.0 0.0 0.0 0.0 0.0 0.0 0.0 0.0 0.0 0.6 1.2 0.7 0.1 0.7 12.6 15.5 17.3 15.5 3.4 2.8 2.7 3.1 3.2 3.4 3.7 4.1 4.6 5.4 5.8 6.7 7.5 7.8 7.9 6.8 3.3 0.7 2.5 3.5 3.5 3.4 3.5 3.3 3.1 3.4 4.0 4.4 4.9 5.7
0.0 0.0 0.0 0.0 0.0 0.0 0.0 0.0 0.0 0.0 0.0 0.0 0.0 0.0 0.0 0.0 0.0 0.0 0.0 0.0 0.0 0.0 0.0 4.6 12.5 12.7 12.1 0.5 0.0 0.0 0.0 0.0 0.0 0.0 0.0 0.0 0.0 0.0 0.0 0.0 0.0 0.0 0.0 0.0 0.1 0.5 0.6 0.2 0.4 1.5 2.1 1.7 1.5 13.8 16.3 15.0 4.2 3.4 3.1 3.4 3.7 3.8 4.2 4.6 4.9 5.6 5.8 5.5 5.6 5.8 5.1 5.0 0.3 0.7 2.1 3.0 3.0 2.9 2.8 2.7 3.3 6.5 6.0 4.9 5.2 5.7 6.5
0.0 0.0 0.0 0.0 0.0 0.0 0.0 0.0 0.0 0.0 0.0 0.0 0.0 0.0 0.0 0.0 0.0 0.0 0.0 0.0 3.6 4.0 4.1 3.7 3.7 13.0 13.9 13.8 12.0 0.4 0.0 0.0 0.0 0.0 0.0 0.0 0.0 0.0 0.0 0.0 0.1 0.7 0.4 0.0 1.2 2.6 2.2 0.6 0.2 11.0 16.3 4.1 13.2 15.0 16.1 11.7 4.8 3.7 3.3 4.0 4.4 4.3 4.6 5.1 5.6 6.6 6.7 7.7 7.3 7.0 0.9 1.7 7.2 8.7 9.0 7.5 5.8 2.9 3.5 3.6 3.9 5.1 6.9 7.2 7.0 6.9 7.6
0.0 0.0 0.0 0.0 0.0 0.0 0.0 0.0 0.0 0.0 0.0 0.0 0.0 0.0 0.0 0.0 0.0 0.0 0.0 0.0 0.0 4.3 4.2 3.9 3.9 13.3 13.5 16.2 16.8 0.8 0.0 0.0 0.0 0.0 0.0 0.0 0.0 0.0 0.0 0.0 12.9 1.2 0.7 1.4 14.4 3.6 12.0 0.2 0.4 14.6 4.0 13.8 16.9 16.3 16.0 3.9 4.2 3.8 3.8 4.4 4.7 4.4 4.6 5.2 6.2 7.2 7.7 8.1 7.9 7.8 7.5 7.7 7.9 7.0 6.9 6.3 4.7 3.8 4.9 9.7 8.6 5.9 10.7 11.8 12.1 8.6 9.3
0.0 0.0 0.0 0.0 0.0 0.0 0.0 0.0 0.0 0.0 0.0 0.0 0.0 0.0 0.0 0.0 0.0 0.0 0.0 0.0 0.0 0.0 4.4 5.1 12.6 13.9 2.8 13.3 1.6 0.8 0.3 13.2 0.7 0.1 0.0 0.0 0.3 0.0 0.0 0.6 14.3 1.4 1.4 2.4 2.7 12.5 0.8 0.5 1.0 15.1 15.0 16.0 17.3 2.3 2.6 2.9 3.1 3.4 4.1 4.5 4.5 4.5 5.0 5.9 6.9 7.6 8.1 8.6 9.2 8.0 6.5 6.2 5.9 6.3 7.7 6.4 5.3 7.5 11.7 12.2 11.5 11.8 12.9 13.3 13.0 12.6 9.5
0.0 0.0 0.0 0.0 0.0 4.5 5.1 0.0 0.0 0.0 0.0 0.0 0.0 0.0 0.0 0.0 3.1 3.4 0.0 3.7 0.0 0.0 4.6 5.7 5.4 3.1 1.6 1.6 13.9 0.9 0.6 0.9 1.4 8.4 1.0 0.8 1.0 0.6 0.2 0.9 1.7 1.9 16.1 16.1 14.4 0.3 1.2 2.0 13.9 15.5 18.6 4.3 3.6 3.0 2.9 2.8 2.8 3.1 3.7 4.2 4.4 4.8 5.8 6.9 7.6 8.2 8.6 9.1 9.8 9.4 6.7 5.2 5.2 6.3 8.3 7.0 7.0 11.5 12.6 6.3 6.9 7.3 7.7 8.2 8.4 8.5 8.7
0.0 0.0 0.0 0.0 0.0 5.4 5.8 0.0 0.0 0.0 0.0 0.0 0.0 0.0 2.9 0.0 3.4 3.3 3.2 4.3 5.1 4.7 5.0 5.8 4.4 1.7 1.1 2.2 2.2 0.0 0.4 1.1 2.2 2.7 13.6 1.8 1.7 14.5 2.0 16.9 1.9 2.4 16.7 16.6 16.2 1.0 15.4 18.5 16.9 16.6 16.9 6.4 5.4 3.7 2.9 2.9 3.4 3.6 3.8 4.2 4.8 5.6 0.0 7.6 8.2 8.7 9.1 9.6 10.1 10.5 10.0 11.2 10.6 8.8 6.9 6.7 8.8 5.6 6.1 6.4 6.6 6.9 7.2 7.4 7.4 7.7 8.2
0.0 0.3 1.2 0.4 5.4 0.0 0.0 0.0 0.0 0.0 0.0 0.0 0.0 3.7 3.5 3.7 3.6 13.3 2.4 3.6 11.5 3.8 3.8 12.4 2.4 0.3 0.2 1.3 1.4 0.8 0.0 1.4 13.3 14.4 13.5 2.2 1.6 12.8 3.2 11.7 2.1 13.0 18.8 18.1 16.3 2.1 16.0 17.8 18.5 18.7 17.5 15.1 5.5 4.2 3.6 3.6 4.0 4.1 4.0 0.0 2.2 1.2 0.0 0.7 1.4 0.2 0.0 1.0 1.4 0.9 1.4 2.1 2.4 8.3 9.2 9.8 10.5 10.9 9.9 6.1 6.3 6.2 6.4 6.4 6.4 6.7 7.0
3.6 4.2 3.6 6.1 1.3 0.7 0.0 0.0 0.0 0.0 0.0 4.4 4.5 4.4 4.2 12.7 2.7 1.3 1.5 12.3 13.5 11.5 0.6 0.9 0.9 0.4 0.1 0.3 0.4 11.5 1.2 0.0 1.2 1.9 2.9 11.8 1.9 2.6 14.3 16.6 2.6 14.5 18.6 18.0 2.3 2.1 15.1 16.2 19.5 17.2 20.1 5.5 4.2 3.7 4.2 4.4 4.1 4.0 4.2 2.0 2.2 0.0 0.0 0.9 1.2 0.0 0.1 1.8 2.4 1.5 1.0 1.3 1.9 2.9 3.8 4.1 4.2 4.6 5.3 5.9 5.7 5.2 5.1 5.2 4.9 4.6 4.6
3.2 4.0 3.3 0.0 0.0 0.0 0.0 0.0 0.0 4.9 4.7 5.1 5.4 15.0 13.1 13.0 3.0 1.7 1.8 14.1 14.6 0.0 0.0 0.0 11.2 0.1 0.0 0.0 0.2 0.5 1.0 0.0 1.4 1.9 3.0 14.8 2.4 2.6 16.5 13.8 3.9 18.3 20.0 19.0 1.8 13.0 15.6 18.9 20.3 20.0 20.3 4.6 3.7 3.7 4.6 4.6 3.9 4.0 4.7 2.1 1.1 0.0 0.6 3.1 2.7 0.7 0.1 1.0 1.9 2.1 1.7 1.4 1.9 2.6 2.7 2.8 3.3 4.0 4.4 4.7 4.7 4.2 3.7 3.5 3.3 3.3 3.5
0.0 0.0 0.0 0.8 2.3 0.3 0.0 5.3 5.0 4.6 15.4 14.4 16.4 17.0 13.7 14.3 12.8 13.9 13.9 0.4 0.0 0.0 0.0 0.0 0.0 0.0 0.0 0.0 0.6 0.7 1.5 0.0 1.9 1.9 2.9 15.5 2.6 2.6 13.5 16.0 16.6 18.8 18.8 2.8 13.7 18.6 18.1 20.7 20.5 20.4 3.2 3.6 4.0 4.1 4.2 4.1 4.1 4.8 5.6 1.9 0.0 0.0 0.0 2.1 2.4 1.1 0.2 0.1 0.7 1.7 2.1 1.9 2.0 2.4 2.6 2.7 3.3 3.9 3.9 3.8 3.6 3.3 2.8 2.6 2.9 3.3 3.2
0.0 0.0 1.7 2.6 7.1 6.5 6.2 15.1 4.6 4.6 12.6 12.9 16.0 18.4 17.0 16.9 17.4 13.1 12.1 13.2 0.0 0.0 0.0 0.0 0.0 0.9 13.1 0.9 0.6 1.2 2.1 2.5 2.5 2.8 3.5 3.4 3.1 15.3 15.4 17.8 19.1 18.5 3.7 15.8 17.6 18.2 20.8 20.6 17.1 16.5 4.3 4.4 4.6 4.6 4.5 4.6 4.7 5.2 5.8 0.7 0.1 0.0 0.0 1.4 2.0 1.7 1.6 1.4 1.6 1.9 2.1 2.2 2.4 2.6 2.6 2.4 2.6 3.0 3.2 2.9 2.2 2.1 2.4 2.7 3.1 3.2 2.9
1.0 7.7 8.1 8.4 7.6 6.6 6.1 18.3 4.4 12.3 17.7 16.1 12.6 16.2 14.2 15.5 15.5 13.1 9.7 0.0 0.0 0.0 0.2 0.0 0.0 1.1 1.6 1.5 1.7 1.9 1.9 2.6 3.9 4.7 15.1 4.4 16.6 15.5 16.7 19.5 16.5 13.3 16.0 20.9 20.0 20.4 18.7 18.8 5.9 6.4 5.3 4.2 4.6 5.0 4.7 4.4 4.5 5.0 5.9 7.1 0.4 1.9 2.9 3.7 4.2 4.1 3.4 2.8 2.5 2.2 1.9 2.2 2.6 2.7 2.4 1.9 1.4 1.4 1.8 1.6 1.1 1.2 1.9 2.6 2.9 3.1 2.9
8.2 8.4 9.1 15.2 17.7 6.4 12.6 15.5 13.5 15.3 12.6 3.8 12.7 13.0 11.8 10.6 3.4 5.1 0.1 0.0 0.0 0.0 0.6 0.4 0.5 1.1 1.6 2.0 2.4 11.1 1.8 2.9 12.5 12.9 4.3 5.2 16.2 18.4 15.2 3.9 5.1 17.1 19.5 18.6 20.6 20.8 20.6 17.0 18.4 6.4 4.6 3.9 4.7 5.1 4.1 3.8 4.8 0.6 6.7 7.4 7.3 1.6 3.6 4.3 4.5 4.2 3.2 2.3 2.0 1.7 1.6 1.8 2.2 2.1 1.7 1.2 0.6 0.4 0.7 0.8 0.7 1.0 1.7 2.4 3.0 3.3 3.1
9.1 0.6 7.2 9.4 14.8 7.2 6.7 16.4 15.6 13.1 4.1 3.6 3.6 3.7 3.6 3.4 0.0 0.0 0.0 0.2 0.1 0.3 0.7 1.1 1.5 1.9 1.8 1.9 2.8 3.4 2.9 2.9 13.3 4.0 3.7 16.3 17.4 14.3 3.7 16.5 20.1 20.1 20.9 21.2 21.0 20.8 20.8 17.5 4.2 3.6 3.4 4.0 4.7 4.4 3.9 4.4 5.6 6.4 6.7 7.1 7.5 7.3 3.1 4.6 4.6 3.7 2.6 1.8 1.7 1.6 1.2 1.2 1.4 1.4 1.2 0.7 0.2 0.0 0.1 0.3 0.5 1.0 1.6 2.2 2.8 3.1 3.0
10.2 7.0 8.3 16.6 18.0 13.2 13.8 13.3 5.2 4.9 3.9 3.6 4.0 4.0 3.5 3.3 2.7 1.6 0.7 0.0 0.5 0.9 1.2 1.6 2.2 3.1 3.2 3.0 4.1 14.7 4.6 4.1 13.3 14.6 4.0 14.8 12.2 14.8 17.3 16.4 17.9 18.3 19.9 21.1 20.9 20.9 20.0 3.4 2.2 2.1 3.4 4.5 4.5 4.1 4.5 5.2 5.6 5.8 6.3 6.8 6.8 6.8 2.9 4.9 4.6 3.1 1.8 1.7 2.0 1.6 0.7 0.3 0.5 0.6 0.5 0.4 0.0 0.0 0.0 0.0 0.3 0.7 1.4 1.9 2.6 3.1 3.1
2.7 9.3 11.2 13.5 9.9 8.4 6.5 5.9 6.9 11.2 5.1 3.8 4.4 4.8 4.5 4.3 3.9 2.6 1.5 1.4 1.6 1.7 1.9 2.0 2.7 4.0 14.1 4.1 4.6 12.8 13.8 5.3 16.1 16.3 4.7 13.9 18.4 21.5 20.9 21.5 21.4 21.1 20.9 18.5 17.1 17.9 4.2 2.7 1.7 2.1 3.3 4.2 4.4 4.4 4.7 5.1 5.3 5.6 5.9 6.0 6.0 1.4 2.6 2.7 1.7 0.7 0.7 1.3 1.6 0.7 0.0 0.0 0.0 0.0 0.2 0.6 0.4 0.0 0.0 0.0 0.1 0.4 1.0 1.6 2.1 2.7 3.1
8.1 10.8 8.0 11.5 10.6 9.2 7.5 6.7 7.6 13.4 6.7 5.6 5.6 5.9 5.9 5.7 4.7 3.2 0.0 2.4 2.4 2.5 3.0 3.6 4.3 5.2 5.7 5.8 14.5 13.4 15.6 13.7 13.8 12.4 14.4 17.5 17.9 17.6 17.9 21.2 20.7 19.9 20.8 20.1 5.1 3.9 2.7 2.2 2.5 2.8 2.9 3.5 4.4 4.7 4.6 4.6 0.0 1.2 1.7 1.9 1.9 1.5 0.6 0.0 0.0 0.0 0.0 0.2 0.1 0.0 0.0 0.0 0.0 0.0 0.0 0.1 0.0 0.0 0.0 0.0 0.0 0.1 0.6 1.1 1.5 2.2 2.9
2.7 9.2 12.0 10.4 9.7 13.3 7.9 15.7 16.7 16.0 14.0 8.4 7.4 6.9 6.8 6.5 5.2 3.7 0.0 1.2 2.0 3.9 4.6 10.5 5.1 6.0 12.1 12.5 14.7 18.0 16.7 5.6 13.4 16.5 17.5 18.4 15.7 15.6 17.7 18.0 20.2 19.7 15.7 4.4 2.9 2.3 2.6 3.1 3.4 3.2 2.8 3.1 3.9 4.3 4.1 1.1 3.3 2.2 0.1 0.0 0.6 0.4 0.0 0.0 0.0 0.0 0.0 0.0 0.0 0.0 0.0 0.0 0.0 0.0 0.0 0.0 0.0 0.0 0.0 0.0 0.0 0.0 0.3 0.6 0.8 1.4 2.2
9.7 12.5 11.7 10.4 9.3 9.2 9.2 9.4 9.6 9.7 9.4 8.5 7.4 5.7 4.8 7.0 6.1 5.1 0.0 4.1 4.3 4.9 14.0 4.6 4.9 11.5 13.2 15.5 13.9 12.2 7.0 14.1 16.0 15.9 16.4 15.8 12.5 16.0 17.4 16.7 15.9 5.6 5.2 3.7 2.6 3.1 3.6 3.5 3.3 3.4 3.4 3.4 3.6 3.8 1.7 4.6 5.1 2.2 0.0 0.0 0.9 0.9 0.1 0.0 0.0 0.0 0.0 0.0 0.0 0.0 0.0 0.0 0.0 0.0 0.0 0.0 0.0 0.9 1.4 0.1 0.0 0.0 0.0 0.1 0.2 0.7 1.6